Home   Weather   Muyinga   Past weeks

Flag for Burundi Past Weather in Muyinga, Burundi — Yesterday and Last 2 Weeks

Now
63 °F

Passing clouds.


Feels Like: 63 °F
Forecast: 60 / 72 °F
Wind: No wind

Location: Kigali Airport

Current Time: Dec 9, 2016 at 7:59:45 am

Latest Report: Dec 9, 2016 at 7:00 am


Visibility: 4 mi

Pressure: 30.18 "Hg (24.56 "Hg at 1749m altitude)

Humidity: 88%

Dew Point: 59 °F

Location of MuyingaLocation

Past Weather in Muyinga — Graph

°F

Muyinga Temperature Yesterday

Maximum temperature yesterday: 81 °F (at 1:30 pm)
Minimum temperature yesterday: 59 °F (at 4:30 am)
Average temperature yesterday: 69 °F

High & Low Weather Summary for the Past Weeks

 TemperatureHumidityPressure
High82 °F (Nov 24, 2:00 pm)100% (Nov 24, 7:00 am)30.24 "Hg (Nov 24, 7:00 am)
Low59 °F (Dec 4, 2:00 am)39% (Dec 6, 10:30 am)29.95 "Hg (Nov 28, 3:30 pm)
Average69 °F77%30.11 "Hg
* Reported Nov 24 7:00 am — Dec 9 6:30 am, Muyinga, Weather by CustomWeather, © 2016

Note: Actual official high and low records may vary slightly from our data, if they occured in-between our weather recording intervals... More about our weather records

Advertising

Muyinga Weather History for the Previous 24 Hours

Scroll right to see more
 ConditionsComfort  
Time TempWeatherWind HumidityBarometerVisibility
6:30 am
Fri, Dec 9
61 °FPassing clouds.No wind94%30.15 "Hg4 mi
8:00 pm
Thu, Dec 8
70 °FPassing clouds.6 mph73%30.12 "HgN/A
7:30 pm70 °FPassing clouds.5 mph73%30.12 "HgN/A
7:00 pm70 °FPassing clouds.3 mph73%30.09 "HgN/A
4:00 pm77 °FScattered clouds.14 mph54%30.07 "HgN/A
3:00 pm79 °FScattered clouds.13 mph48%30.07 "HgN/A
2:30 pm81 °FScattered clouds.9 mph45%30.07 "HgN/A
2:00 pm79 °FScattered clouds.8 mph48%30.07 "HgN/A
1:30 pm81 °FScattered clouds.5 mph51%30.09 "HgN/A
1:00 pm77 °FScattered clouds.5 mph54%30.12 "HgN/A
11:30 am77 °FScattered clouds.5 mph57%30.15 "HgN/A
11:00 am77 °FScattered clouds.3 mph57%30.18 "HgN/A
10:30 am77 °FScattered clouds.5 mph57%30.21 "HgN/A
10:00 am73 °FScattered clouds.5 mph69%30.21 "HgN/A
9:30 am72 °FPassing clouds.6 mph69%30.21 "HgN/A
9:00 am72 °FPassing clouds.5 mph69%N/AN/A
8:30 am70 °FPassing clouds.3 mph73%30.21 "HgN/A
8:00 am72 °FPassing clouds.2 mph65%30.21 "HgN/A
7:30 am66 °FPassing clouds.2 mph78%30.21 "HgN/A
7:00 am63 °FScattered clouds.1 mph83%30.21 "HgN/A
Weather by CustomWeather, © 2016

See weather overviewHow to use our weather pages